Terug naar catalogus

STARLINK-37707

ActiefCommunicatieVLEO
NORAD 69461·PAYLOAD·🇺🇸 United States

Gelanceerd Jun 8, 2026 vanaf Cape Canaveral Space Force Station

Loading…

Volgende Passages (komende 24 uur)

TLE

VersSource: CelesTrak SupGP

Epoch: Sep 15, 2026, 03:07 UTC

1 69461C 26127U   26258.13034722 -.00046360  00000+0 -13699-2 0  2587
2 69461  53.1575 191.0541 0001350  83.9769 304.1760 15.34410636    11

Volg STARLINK-37707 in realtime met AllMySat

Download on the App Store